| time (UTC) | temp F | wind direction | speed MPH | gust MPH | rain 1hr in | rain 24hr in | rain mn in | humidity % | barometer mb |
| 20260504231405 | 58 | 359 | 0.0 | 2.0 | 0.00 | 0.02 | 0.00 | 79 | 1032.9 |
| 20260504230407 | 58 | 354 | 1.0 | 3.0 | 0.00 | 0.02 | 0.00 | 79 | 1032.9 |
| 20260504225905 | 58 | 346 | 1.0 | 2.0 | 0.00 | 0.02 | 0.00 | 79 | 1032.9 |
| 20260504225407 | 58 | 336 | 0.0 | 1.0 | 0.00 | 0.02 | 0.00 | 80 | 1032.9 |
| 20260504224905 | 57 | 340 | 0.0 | 1.0 | 0.00 | 0.02 | 0.00 | 81 | 1032.9 |
| 20260504224404 | 57 | 346 | 0.0 | 1.0 | 0.00 | 0.02 | 0.00 | 81 | 1032.9 |
| 20260504223905 | 57 | 338 | 1.0 | 2.0 | 0.00 | 0.02 | 0.00 | 81 | 1032.9 |
| 20260504223405 | 57 | 242 | 1.0 | 2.0 | 0.00 | 0.02 | 0.00 | 81 | 1033.0 |
| 20260504222405 | 56 | 343 | 0.0 | 2.0 | 0.00 | 0.02 | 0.00 | 81 | 1033.0 |
| 20260504221905 | 56 | 341 | 0.0 | 1.0 | 0.00 | 0.02 | 0.00 | 82 | 1033.0 |
| 20260504221405 | 56 | 211 | 0.0 | 1.0 | 0.00 | 0.02 | 0.00 | 82 | 1033.0 |
| 20260504220907 | 56 | 16 | 0.0 | 1.0 | 0.00 | 0.02 | 0.00 | 82 | 1033.0 |
| 20260504220405 | 56 | 16 | 1.0 | 2.0 | 0.00 | 0.02 | 0.00 | 82 | 1033.0 |
| 20260504215405 | 56 | 16 | 0.0 | 1.0 | 0.00 | 0.02 | 0.00 | 83 | 1033.1 |
| 20260504214907 | 55 | 16 | 0.0 | 1.0 | 0.00 | 0.02 | 0.00 | 83 | 1033.1 |
| 20260504214405 | 55 | 16 | 0.0 | 1.0 | 0.00 | 0.02 | 0.00 | 83 | 1033.2 |
| 20260504213906 | 55 | 16 | 0.0 | 0.0 | 0.00 | 0.02 | 0.00 | 84 | 1033.2 |
| 20260504213407 | 55 | 16 | 0.0 | 0.0 | 0.00 | 0.02 | 0.00 | 84 | 1033.2 |
| 20260504212905 | 55 | 16 | 0.0 | 0.0 | 0.00 | 0.02 | 0.00 | 84 | 1033.2 |
| 20260504212407 | 55 | 16 | 0.0 | 0.0 | 0.00 | 0.02 | 0.00 | 84 | 1033.2 |
| 20260504211905 | 54 | 16 | 0.0 | 0.0 | 0.00 | 0.02 | 0.00 | 83 | 1033.2 |
| 20260504211405 | 54 | 16 | 0.0 | 1.0 | 0.00 | 0.02 | 0.00 | 84 | 1033.2 |
| 20260504210905 | 54 | 16 | 0.0 | 1.0 | 0.00 | 0.02 | 0.00 | 84 | 1033.3 |
| 20260504210405 | 54 | 16 | 0.0 | 1.0 | 0.00 | 0.02 | 0.00 | 83 | 1033.2 |
| 20260504205906 | 54 | 16 | 0.0 | 1.0 | 0.00 | 0.02 | 0.00 | 83 | 1033.2 |
| 20260504205405 | 54 | 16 | 0.0 | 1.0 | 0.00 | 0.02 | 0.00 | 83 | 1033.1 |
| 20260504204407 | 54 | 16 | 0.0 | 1.0 | 0.00 | 0.02 | 0.00 | 83 | 1033.2 |
| 20260504203905 | 54 | 16 | 0.0 | 1.0 | 0.00 | 0.02 | 0.00 | 83 | 1033.2 |
| 20260504202906 | 53 | 16 | 0.0 | 1.0 | 0.00 | 0.02 | 0.00 | 83 | 1033.3 |
| 20260504202406 | 53 | 16 | 0.0 | 0.0 | 0.00 | 0.02 | 0.00 | 83 | 1033.3 |
| 20260504201906 | 53 | 16 | 0.0 | 0.0 | 0.00 | 0.02 | 0.00 | 83 | 1033.2 |
| 20260504200907 | 53 | 16 | 0.0 | 1.0 | 0.00 | 0.02 | 0.00 | 83 | 1033.1 |
| 20260504200406 | 53 | 16 | 0.0 | 1.0 | 0.00 | 0.02 | 0.00 | 83 | 1033.1 |
| 20260504195905 | 53 | 16 | 0.0 | 0.0 | 0.00 | 0.02 | 0.00 | 83 | 1033.0 |
| 20260504195405 | 53 | 16 | 0.0 | 0.0 | 0.00 | 0.02 | 0.00 | 83 | 1033.0 |
| 20260504194906 | 53 | 16 | 0.0 | 1.0 | 0.00 | 0.02 | 0.00 | 83 | 1032.9 |
| 20260504193906 | 53 | 16 | 0.0 | 1.0 | 0.00 | 0.02 | 0.00 | 84 | 1032.8 |
| 20260504192905 | 53 | 16 | 0.0 | 1.0 | 0.00 | 0.02 | 0.00 | 84 | 1032.7 |
| 20260504191906 | 52 | 16 | 0.0 | 2.0 | 0.00 | 0.02 | 0.00 | 85 | 1032.7 |
| 20260504191405 | 53 | 10 | 1.0 | 2.0 | 0.00 | 0.02 | 0.00 | 85 | 1032.7 |
| 20260504190906 | 52 | 343 | 0.0 | 1.0 | 0.00 | 0.02 | 0.00 | 85 | 1032.7 |
| 20260504190405 | 52 | 338 | 1.0 | 2.0 | 0.00 | 0.02 | 0.00 | 86 | 1032.7 |
| 20260504185905 | 52 | 336 | 0.0 | 1.0 | 0.00 | 0.02 | 0.00 | 86 | 1032.7 |
| 20260504185405 | 52 | 335 | 0.0 | 1.0 | 0.00 | 0.02 | 0.00 | 87 | 1032.6 |
| 20260504184905 | 52 | 330 | 0.0 | 1.0 | 0.00 | 0.02 | 0.00 | 87 | 1032.6 |
| 20260504184405 | 52 | 338 | 0.0 | 1.0 | 0.00 | 0.02 | 0.00 | 87 | 1032.6 |
| 20260504183906 | 52 | 337 | 0.0 | 1.0 | 0.00 | 0.02 | 0.00 | 87 | 1032.6 |
| 20260504182906 | 52 | 346 | 0.0 | 1.0 | 0.00 | 0.02 | 0.00 | 88 | 1032.7 |
| 20260504182405 | 52 | 352 | 0.0 | 1.0 | 0.00 | 0.02 | 0.00 | 88 | 1032.7 |
| 20260504181904 | 52 | 355 | 0.0 | 2.0 | 0.00 | 0.02 | 0.00 | 89 | 1032.7 |
| 20260504181405 | 52 | 343 | 0.0 | 2.0 | 0.00 | 0.02 | 0.00 | 89 | 1032.7 |
| 20260504180905 | 51 | 342 | 0.0 | 1.0 | 0.00 | 0.02 | 0.00 | 90 | 1032.7 |
| 20260504180405 | 51 | 349 | 0.0 | 3.0 | 0.00 | 0.02 | 0.00 | 90 | 1032.7 |
| 20260504175905 | 51 | 355 | 1.0 | 3.0 | 0.00 | 0.02 | 0.00 | 90 | 1032.7 |
| 20260504175405 | 51 | 352 | 0.0 | 2.0 | 0.00 | 0.02 | 0.00 | 90 | 1032.7 |
| 20260504174905 | 51 | 334 | 1.0 | 3.0 | 0.00 | 0.02 | 0.00 | 90 | 1032.8 |
| 20260504173905 | 51 | 359 | 0.0 | 2.0 | 0.00 | 0.02 | 0.00 | 91 | 1032.8 |
| 20260504173404 | 51 | 263 | 0.0 | 3.0 | 0.00 | 0.02 | 0.00 | 91 | 1032.7 |
| 20260504172905 | 50 | 300 | 0.0 | 2.0 | 0.00 | 0.02 | 0.00 | 91 | 1032.8 |
| 20260504171904 | 50 | 27 | 0.0 | 1.0 | 0.00 | 0.02 | 0.00 | 91 | 1032.8 |
| 20260504171405 | 50 | 28 | 1.0 | 2.0 | 0.00 | 0.02 | 0.00 | 91 | 1032.8 |
| 20260504170904 | 50 | 358 | 0.0 | 1.0 | 0.00 | 0.02 | 0.00 | 91 | 1032.8 |
| 20260504170405 | 50 | 13 | 0.0 | 0.0 | 0.00 | 0.02 | 0.00 | 91 | 1032.8 |
| 20260504160405 | 50 | 356 | 1.0 | 2.0 | 0.00 | 0.02 | 0.00 | 90 | 1032.8 |
| 20260504150905 | 50 | 12 | 1.0 | 2.0 | 0.00 | 0.02 | 0.00 | 90 | 1033.4 |
| 20260504150404 | 50 | 31 | 1.0 | 2.0 | 0.00 | 0.02 | 0.00 | 90 | 1033.4 |
| 20260504140905 | 49 | 359 | 0.0 | 1.0 | 0.00 | 0.02 | 0.00 | 89 | 1033.5 |
| 20260504140405 | 49 | 359 | 0.0 | 1.0 | 0.00 | 0.02 | 0.00 | 89 | 1033.4 |
| 20260504130404 | 51 | 225 | 0.0 | 1.0 | 0.00 | 0.02 | 0.00 | 88 | 1033.4 |
| 20260504110405 | 51 | 37 | 0.0 | 0.0 | 0.00 | 0.02 | 0.01 | 88 | 1033.5 |
| 20260504100406 | 53 | 37 | 0.0 | 1.0 | 0.00 | 0.02 | 0.01 | 84 | 1033.1 |
| 20260504081904 | 55 | 343 | 1.0 | 3.0 | 0.00 | 0.02 | 0.01 | 81 | 1032.7 |
| 20260504081405 | 55 | 349 | 2.0 | 5.0 | 0.00 | 0.02 | 0.01 | 81 | 1032.7 |
| 20260504080404 | 55 | 349 | 1.0 | 3.0 | 0.00 | 0.02 | 0.01 | 81 | 1032.7 |
| 20260504070404 | 55 | 352 | 3.0 | 7.0 | 0.00 | 0.02 | 0.01 | 81 | 1032.6 |
| 20260504050405 | 59 | 232 | 4.0 | 10.0 | 0.00 | 0.03 | 0.01 | 77 | 1031.6 |
| 20260504045405 | 60 | 299 | 2.0 | 9.0 | 0.00 | 0.03 | 0.01 | 77 | 1031.6 |
| 20260504044906 | 60 | 289 | 3.0 | 9.0 | 0.00 | 0.03 | 0.01 | 77 | 1031.6 |
| 20260504044404 | 60 | 317 | 4.0 | 12.0 | 0.00 | 0.03 | 0.01 | 77 | 1031.6 |
| 20260504043405 | 60 | 328 | 3.0 | 9.0 | 0.00 | 0.03 | 0.01 | 76 | 1031.5 |
| 20260504042905 | 60 | 315 | 4.0 | 12.0 | 0.00 | 0.03 | 0.01 | 76 | 1031.6 |
| 20260504042406 | 60 | 325 | 3.0 | 12.0 | 0.00 | 0.03 | 0.01 | 76 | 1031.6 |
| 20260504041905 | 61 | 312 | 3.0 | 12.0 | 0.00 | 0.03 | 0.01 | 76 | 1031.6 |
| 20260504041406 | 61 | 249 | 3.0 | 12.0 | 0.00 | 0.03 | 0.01 | 76 | 1031.6 |
| 20260504040906 | 61 | 291 | 3.0 | 12.0 | 0.00 | 0.03 | 0.01 | 76 | 1031.6 |
| 20260504040405 | 61 | 345 | 5.0 | 12.0 | 0.00 | 0.03 | 0.01 | 75 | 1031.6 |
| 20260504035906 | 61 | 254 | 4.0 | 13.0 | 0.00 | 0.03 | 0.01 | 75 | 1031.6 |
| 20260504035405 | 61 | 316 | 3.0 | 12.0 | 0.00 | 0.03 | 0.01 | 75 | 1031.5 |
| 20260504033905 | 61 | 339 | 4.0 | 12.0 | 0.00 | 0.03 | 0.01 | 75 | 1031.7 |
| 20260504032906 | 61 | 295 | 5.0 | 12.0 | 0.00 | 0.03 | 0.01 | 75 | 1031.8 |
| 20260504032405 | 61 | 315 | 5.0 | 16.0 | 0.00 | 0.03 | 0.01 | 74 | 1031.8 |
| 20260504031905 | 61 | 328 | 5.0 | 12.0 | 0.00 | 0.03 | 0.01 | 75 | 1031.8 |
| 20260504031405 | 61 | 336 | 5.0 | 12.0 | 0.00 | 0.03 | 0.01 | 75 | 1031.8 |
| 20260504030907 | 61 | 288 | 6.0 | 15.0 | 0.00 | 0.03 | 0.01 | 75 | 1031.8 |
| 20260504030405 | 61 | 326 | 9.0 | 16.0 | 0.00 | 0.03 | 0.01 | 75 | 1031.9 |
| 20260504025406 | 61 | 271 | 4.0 | 14.0 | 0.00 | 0.03 | 0.01 | 76 | 1031.9 |
| 20260504024907 | 61 | 334 | 6.0 | 12.0 | 0.00 | 0.03 | 0.01 | 75 | 1031.9 |
| 20260504024405 | 61 | 307 | 6.0 | 17.0 | 0.00 | 0.03 | 0.01 | 76 | 1031.9 |
| 20260504023905 | 61 | 317 | 9.0 | 17.0 | 0.00 | 0.03 | 0.01 | 75 | 1032.0 |
| 20260504023405 | 61 | 332 | 6.0 | 16.0 | 0.00 | 0.03 | 0.01 | 75 | 1032.0 |
| 20260504022906 | 61 | 325 | 6.0 | 13.0 | 0.00 | 0.03 | 0.01 | 76 | 1032.0 |
| 20260504021905 | 61 | 354 | 6.0 | 20.0 | 0.00 | 0.03 | 0.01 | 76 | 1032.1 |
| 20260504021406 | 61 | 284 | 5.0 | 17.0 | 0.00 | 0.03 | 0.01 | 76 | 1032.1 |
| 20260504020906 | 61 | 331 | 4.0 | 12.0 | 0.00 | 0.03 | 0.01 | 76 | 1032.1 |
| 20260504020406 | 61 | 322 | 7.0 | 17.0 | 0.00 | 0.03 | 0.01 | 76 | 1032.2 |
| 20260504015906 | 61 | 288 | 5.0 | 17.0 | 0.00 | 0.03 | 0.01 | 76 | 1032.1 |
| 20260504015407 | 61 | 301 | 8.0 | 16.0 | 0.00 | 0.03 | 0.01 | 76 | 1032.3 |
| 20260504014905 | 61 | 337 | 6.0 | 17.0 | 0.00 | 0.03 | 0.01 | 76 | 1032.3 |
| 20260504013906 | 61 | 322 | 8.0 | 21.0 | 0.00 | 0.03 | 0.01 | 76 | 1032.4 |
| 20260504013406 | 61 | 321 | 6.0 | 15.0 | 0.00 | 0.03 | 0.01 | 76 | 1032.5 |
| 20260504012906 | 61 | 329 | 7.0 | 18.0 | 0.00 | 0.03 | 0.01 | 76 | 1032.5 |
| 20260504011905 | 61 | 334 | 6.0 | 17.0 | 0.00 | 0.03 | 0.01 | 76 | 1032.5 |
| 20260504011407 | 61 | 313 | 6.0 | 20.0 | 0.00 | 0.03 | 0.01 | 76 | 1032.6 |
| 20260504010906 | 61 | 327 | 5.0 | 15.0 | 0.00 | 0.03 | 0.01 | 76 | 1032.6 |
| 20260504010405 | 61 | 347 | 7.0 | 18.0 | 0.00 | 0.03 | 0.01 | 75 | 1032.6 |
| 20260504005906 | 61 | 330 | 6.0 | 13.0 | 0.00 | 0.03 | 0.01 | 76 | 1032.7 |
| 20260504005406 | 61 | 337 | 5.0 | 13.0 | 0.00 | 0.03 | 0.01 | 76 | 1032.8 |
| 20260504004906 | 61 | 324 | 6.0 | 12.0 | 0.01 | 0.03 | 0.01 | 76 | 1032.8 |
| 20260504004405 | 61 | 295 | 5.0 | 12.0 | 0.01 | 0.03 | 0.01 | 75 | 1032.8 |
| 20260504003907 | 61 | 319 | 5.0 | 10.0 | 0.01 | 0.03 | 0.01 | 75 | 1032.9 |
| 20260504003405 | 61 | 322 | 5.0 | 12.0 | 0.01 | 0.03 | 0.01 | 74 | 1033.1 |
| 20260504002905 | 61 | 283 | 4.0 | 10.0 | 0.01 | 0.03 | 0.01 | 74 | 1033.2 |
| 20260504001906 | 61 | 324 | 4.0 | 9.0 | 0.01 | 0.03 | 0.01 | 74 | 1033.4 |
| 20260504001405 | 61 | 326 | 3.0 | 6.0 | 0.01 | 0.03 | 0.01 | 73 | 1033.4 |
| 20260504000906 | 61 | 334 | 2.0 | 5.0 | 0.01 | 0.03 | 0.01 | 74 | 1033.4 |
| 20260504000405 | 61 | 267 | 1.0 | 3.0 | 0.01 | 0.03 | 0.01 | 74 | 1033.4 |
| 20260503235907 | 61 | 356 | 1.0 | 3.0 | 0.01 | 0.03 | 0.01 | 74 | 1033.5 |
| 20260503235405 | 60 | 343 | 2.0 | 5.0 | 0.01 | 0.03 | 0.01 | 74 | 1033.6 |
| 20260503234406 | 61 | 338 | 2.0 | 5.0 | 0.00 | 0.02 | 0.00 | 74 | 1033.7 |
| 20260503233906 | 61 | 349 | 2.0 | 3.0 | 0.00 | 0.02 | 0.00 | 75 | 1033.6 |
| 20260503233405 | 60 | 345 | 2.0 | 3.0 | 0.00 | 0.02 | 0.00 | 76 | 1033.6 |
| 20260503232405 | 59 | 334 | 2.0 | 5.0 | 0.00 | 0.02 | 0.00 | 76 | 1033.6 |
| 20260503231906 | 59 | 357 | 2.0 | 3.0 | 0.00 | 0.02 | 0.00 | 75 | 1033.7 |